Погода Весёлая Горка

Погода Весёлая Горка : погода сейчас, прогноз погоды и архив. Всё, что Вы хотите узнать о погоде Весёлая Горка!

Поиск расширенной информации на нашем сайте:

Другие новости

Новости СМИ2

Главная страница сайта

Новости сайта

03.07.2017

Напоминаем, что на нашем специализированном сайте Метеоцентр.Азия вы можете получить высокодетализированные автоматические прогнозы погоды по пунктам России, СНГ и мира в авиационном формате (включающие направление и скорость ветра, видимость, явления погоды, количество и форму облачности, нижнюю и верхнюю границу облачности).


Погода Весёлая Горка - сегодня

Время (UTC), дата Ветер
(°,м/с) 
Видим.   Явления Облачность Т
(°С)
Тd
(°С)
f(%) Тe
(°С)
Pmin
(гПа)
dP
(гПа)
Po
(мм)
O2
(г/м3)
Тmin Tmax R s Состояние
почвы
21 16.10.17 тихо ()   20000 м    10/10 600 м кучево-дожд. 
[Cb cap]
-3.1 -12.9 47 -3  1021.5  -0.6  747  306  -3.4        замёрзшая 
00 17.10.17 тихо ()   20000 м    10/10 600 м кучево-дожд. 
[Cb cap]
+1.9 -7 52 +2  1020.8  -0.2  747  300           
03 17.10.17 тихо ()   20000 м    8/8 600 м кучево-дожд. 
[Cb cap]
+2.3 -13.1 31 +2  1020.3  -0.4  746  299           
06 17.10.17 тихо ()   20000 м    10/10 600 м кучево-дожд. 
[Cb cap]
+1.4 -12.4 35 +1  1020.4  746  300           
09 17.10.17 320 (СЗ) 20000 м    10/10 600 м 
[Sc]
+1.1 -12.9 34 +2  1023.3  2.7  749  302    +3.5       
12 17.10.17 тихо ()   20000 м    10/0 верхняя 
[Ci]
-3.3 -6.8 77 -3  1025  1.3  749  306           
15 17.10.17 тихо ()   20000 м    ясно 
-4.9 -10.7 64 -5  1025.5  0.3  750  309           
18 17.10.17 тихо ()   20000 м    ясно 
-5.5 -10.2 69 -6  1025.8  0.3  750  309           
21 17.10.17 тихо ()   20000 м    ясно 
-6.3 -15.5 48 -6  1026.2  0.3  750  311  -6.5        замёрзшая 
00 18.10.17 270 (З) 20000 м    ясно 
-1 -11.6 44 1026.5  0.8  751  305           
03 18.10.17 180 (Ю) 20000 м    ясно 
+2.8 -14.7 26 +4  1025  -1.1  750  300           
06 18.10.17 090 (В) 20000 м    ясно 
+3.4 -14.7 25 +3  1023.6  -1.3  749  299           
09 18.10.17 110 (В) 20000 м    3/0 средняя, верхняя 
[Ac lent|Ci fib]
-1 -15.4 33 1024.1  749  304    +4.2       
12 18.10.17 270 (З) 20000 м    3/0 средняя, верхняя 
[Ac lent|Ci fib]
-2.4 -14.1 40 -2  1024.1  -0.1  749  306           
15 18.10.17 тихо ()   20000 м    3/0 верхняя 
[Ci fib]
-5.6 -15.7 45 -6  1024.3  -0.1  749  309           
21 18.10.17 тихо ()   20000 м    10/9 600 м верхняя 
[Sc|Ci fib]
-5.4 -14.7 48 -5  1023.6  -0.4  748  309  -5.9        замёрзшая 
00 19.10.17 тихо ()   20000 м    10/0 верхняя 
[Cs]
-1.8 -11.1 49 -2  1023.5  0.2  748  305           
03 19.10.17 090 (В) 20000 м    4/0 верхняя 
[Ci]
+2.4 -12.3 33 +3  1021.7  -1.2  748  300           
06 19.10.17 090 (В) 20000 м    1/0 верхняя 
[Ci fib]
+3.8 -13 28 +5  1020.8  -0.8  747  298           
09 19.10.17 тихо ()   20000 м    1/1 600 м 
[Sc]
-0.4 -13.5 36 -0  1021.9  0.7  747  303    +4.5       
12 19.10.17 тихо ()   20000 м    ясно 
-3.3 -13.3 46 -3  1022.9  0.7  748  306           
15 19.10.17 тихо ()   20000 м    ясно 
-4.4 -13.5 49 -4  1023.5  0.4  748  308           
18 19.10.17 тихо ()   20000 м    ясно 
-4.7 -12.9 53 -5  1023.5  -0.1  748  308           
21 19.10.17 тихо ()   20000 м    10/10 600 м кучево-дожд. 
[Cb cap]
-5.8 -11.5 64 -6  1023.2  -0.3  748  309  -5.8        замёрзшая 
00 20.10.17 тихо ()   20000 м    10/10 600 м кучево-дожд. 
[Cb cap]
-4.6 -9.8 67 -5  1023.5  0.4  748  308           
Время (UTC), дата Ветер
(°,м/с) 
Видим.   Явления Облачность Т
(°С)
Тd
(°С)
f(%) Тe
(°С)
Pmin
(гПа)
dP
(гПа)
Po
(мм)
O2
(г/м3)
Тmin Tmax R s Состояние
почвы

Для получения пояснительной информации подведите курсор к названию столбца.

ПОГОДА Весёлая Горка - архив

Всё, что Вы хотите узнать о погоде Весёлая Горка - удобно и подробно!

Выберите нужную дату (начиная с 1 января 2015* года) и нажмите кнопку "Найти".
Будут отображены архивные сводки погоды по пункту Весёлая Горка, начиная с указанной даты.


Отображать данные в формате CSV (для использования в таблицах Excel)


Внимание! Наш архив погоды предназначен исключительно для личного некоммерческого использования в познавательных целях. Если Вам необходимы официальные справки о состоянии погоды (для производственных, юридических, коммерческих и т.п. целей), обращайтесь в органы Росгидромета.

*Примечание: данная дата относится к архиву по метеостанциям СССР (Россия, СНГ, Балтия).
Архив по метеостанциям Зарубежной Европы и Азии (кроме Китая) хранится 10 дней, по другим регионам земного шара (Китай, Африка, Америка, Австралия, Океания) - 1 день.

Весёлая Горка - район местоположения метеостанции


Название, широта, долгота, высота метеостанции:
Весёлая Горка 52.3°ш. 135.8°д. 201 м над ур. моря [Российская Федерация]

Дополнительная информация

В oтличие oт бoльшинства пoгoдных сайтoв мы публикуем пoдрoбную метеoинфoрмацию в детальнoм прoфессиoнальнoм фoрмате.

Характеристики температуры и влажнoсти вoздуха измеряются на высoте 2 м в тени вдали oт зданий и деревьев.
Скoрoсть ветра измеряется на высoте 10 м (на урoвне рoста челoвека скoрoсть ветра ниже в 1.5-2 раза). Если метеoстанция нахoдится в гoрoде или в лесу, тo скoрoсть ветра занижена на 2-4 м/с пo сравнению с oткрытым местoм. Скoрoсть ветра над акватoриями крупных рек и oзёр, а также на вершинах хoлмoв на 2-5 м/с выше, чем в oбычных услoвиях.
Атмoсфернoе давление в разных тoчках местнoсти мoжет значительнo oтличаться oт давления на метеoстанции, в зависимoсти oт услoвий рельефа (при пoдъёме на 10 м давление пoнижается примернo на 1 мм рт.ст.).